Wind_Speed
4 5 5 5 6 8 7 3 6 6 7 7 8 8 8 9 9 9 10 9 9 9 9 8 9 8 7 7 7 6 5 5 4 3 2 2 2 2 3 3 2 2 3 3 3 4 4 5 6
2 3 3 4 6 7 5 4 7 8 9 8 8 8 9 9 9 9 10 10 9 9 9 8 9 8 7 7 6 6 6 5 5 3 3 3 3 3 3 3 3 3 3 4 4 4 4 5 5
2 2 3 3 5 5 5 7 7 10 9 9 9 9 9 10 9 10 10 10 9 9 9 8 8 8 7 7 6 6 6 5 5 4 3 3 4 4 4 4 4 4 4 4 4 4 4 5 6
3 3 2 2 3 2 6 10 8 10 10 9 8 9 9 9 9 10 11 11 10 9 9 9 8 8 8 7 7 6 6 5 5 4 4 3 4 4 4 4 4 4 4 4 4 5 5 5 6
4 2 1 1 2 3 8 10 10 10 10 9 9 8 10 9 9 10 11 11 11 10 9 9 9 9 8 7 6 6 6 5 5 4 4 4 4 4 4 4 3 2 3 3 3 4 4 4 5
5 3 1 2 3 6 10 10 11 12 11 10 10 9 9 9 9 10 11 11 11 10 10 9 9 9 9 8 7 6 6 6 5 5 5 4 4 3 4 4 3 2 2 2 2 2 3 3 3
6 6 3 3 7 10 12 11 12 12 11 10 11 10 9 10 10 11 11 11 11 10 10 10 9 9 9 8 7 7 6 6 6 5 5 5 4 4 4 4 3 2 2 2 2 2 3 3 3
7 7 5 5 8 11 13 12 12 12 12 11 11 10 9 10 10 11 11 11 11 10 10 10 10 10 9 8 8 7 7 6 6 6 5 5 5 4 4 4 3 3 3 2 2 3 3 4 4
8 7 5 7 9 13 13 11 13 13 12 12 11 10 10 11 11 11 11 10 11 11 10 10 10 9 9 9 9 8 8 7 7 6 5 5 5 4 4 4 4 4 4 3 3 3 3 4 4
9 8 7 9 10 13 12 11 13 12 13 13 12 10 10 12 12 12 11 10 10 10 10 11 11 10 10 9 9 9 8 7 7 6 5 5 5 4 5 5 5 5 4 4 4 4 4 4 4
11 11 11 13 13 15 14 12 13 12 13 14 13 11 10 12 13 12 11 10 10 10 11 11 11 11 10 9 9 9 8 8 7 7 6 5 5 5 5 5 6 6 5 5 5 4 4 4 4
12 13 14 15 16 17 15 14 13 14 14 15 14 13 12 11 13 13 12 11 11 11 11 11 11 11 11 10 9 9 8 8 8 7 6 5 5 5 5 6 6 6 6 6 6 6 5 5 5
14 14 16 16 16 16 15 14 14 15 15 15 14 14 14 12 13 13 12 12 11 11 11 11 11 12 12 11 10 10 9 8 8 7 6 5 5 5 6 6 6 6 6 6 6 6 6 6 6
13 14 15 15 14 14 13 13 13 14 15 15 15 14 13 13 13 14 12 12 12 12 11 12 12 13 12 12 11 10 10 8 8 7 6 5 5 5 6 6 6 6 6 7 6 6 6 6 6
15 14 13 12 12 12 12 12 12 13 15 15 15 14 14 12 13 13 13 12 12 12 12 12 13 13 13 12 11 11 10 9 8 8 7 6 6 6 7 7 6 6 6 7 7 7 6 7 7
13 12 12 11 12 13 12 12 11 14 15 16 16 15 15 13 13 13 13 12 12 13 13 13 14 14 13 13 12 11 10 10 9 8 8 7 7 7 7 7 7 7 7 6 6 7 7 8 7
10 10 10 11 14 15 14 14 13 15 16 17 16 16 15 14 13 13 13 13 13 13 14 14 14 15 15 14 13 12 12 11 9 9 8 8 7 7 7 7 7 6 7 7 7 7 7 7 7
10 11 11 14 17 17 16 15 16 15 17 17 17 16 15 14 12 13 14 13 14 14 14 14 14 15 15 14 14 13 13 11 10 10 9 8 8 8 8 8 7 7 7 7 7 7 7 7 7
12 13 14 16 19 18 17 15 17 18 17 18 18 17 16 14 14 15 15 14 14 15 14 14 14 15 15 14 14 14 13 12 11 10 10 9 9 9 9 9 8 8 8 8 8 8 8 8 8
16 17 17 17 19 18 18 17 17 18 17 17 17 17 17 16 15 16 16 15 15 15 15 15 15 16 16 15 15 14 13 12 11 11 10 10 10 11 10 10 9 9 9 9 9 9 9 9 9
17 18 17 17 18 18 17 18 19 17 17 16 16 15 17 17 16 17 16 16 16 16 16 16 16 17 17 16 16 14 13 12 12 11 11 11 11 12 11 10 10 10 10 10 10 10 10 10 10
17 17 18 18 18 18 16 18 18 19 18 17 16 16 16 18 18 18 17 17 17 17 17 17 17 17 17 17 16 15 14 13 13 13 13 12 12 12 12 11 11 10 10 10 10 10 10 10 10
17 17 18 18 20 20 18 17 18 21 21 18 16 16 17 18 18 18 18 18 18 18 17 17 17 17 17 16 15 15 14 14 14 14 13 13 12 12 12 12 12 11 10 10 10 10 10 10 10
18 17 17 17 19 22 19 18 19 21 23 20 18 17 18 18 19 18 18 19 19 18 18 18 17 17 16 15 15 15 14 15 15 15 14 13 13 12 12 12 11 11 11 10 10 10 10 10 11
17 17 17 19 20 20 17 19 20 21 22 22 20 19 19 20 20 20 19 18 18 19 19 18 17 17 16 15 15 15 14 14 14 14 14 13 13 12 12 12 12 11 11 11 11 11 11 11 12
17 17 18 17 17 16 17 22 22 22 22 23 23 22 21 21 21 20 20 19 19 19 19 18 18 17 16 15 15 15 15 15 15 14 14 14 14 13 13 13 12 12 12 13 13 13 13 13 13
16 17 17 17 16 17 18 20 23 23 23 23 23 20 19 22 22 21 20 20 19 19 20 19 19 17 16 16 16 15 15 16 15 15 15 15 14 14 14 13 12 12 13 14 14 14 14 13 14
17 17 16 17 18 18 19 20 21 21 23 24 23 22 22 23 23 22 21 20 20 20 20 20 19 18 18 17 17 16 16 16 16 16 16 16 16 16 16 15 13 13 14 15 15 15 14 14 14
16 17 17 18 18 18 17 20 20 22 24 24 23 22 24 24 23 23 21 21 21 21 20 20 20 20 19 19 18 18 17 17 17 17 17 17 17 17 16 15 15 15 15 15 15 14 14 14 14
16 16 18 20 20 19 19 20 22 23 25 23 23 23 22 23 22 22 22 22 21 21 21 20 20 20 20 20 19 19 19 18 18 18 18 18 17 17 17 17 16 17 17 16 16 16 15 14 14
Wind_Direction
85 84 75 72 64 73 66 28 330 320 328 341 344 349 356 356 358 356 354 356 2 5 9 7 5 4 2 2 359 355 352 349 344 330 322 313 299 291 292 281 280 271 264 255 245 248 255 250 245
110 104 91 68 57 57 37 322 311 318 328 332 338 345 351 350 356 358 353 354 357 3 6 6 4 1 360 359 356 354 352 348 345 337 328 316 303 299 300 293 284 275 266 261 253 250 256 257 256
157 144 105 75 56 36 331 300 308 314 323 324 330 340 346 350 355 357 352 350 353 358 1 1 1 359 359 358 352 346 345 344 341 338 331 321 313 309 304 302 286 270 264 264 260 256 258 257 257
174 162 118 91 77 333 296 296 299 306 310 315 326 334 340 346 351 352 351 351 351 354 359 358 356 355 353 351 348 344 341 342 343 339 334 329 323 317 314 315 301 265 256 268 268 265 260 261 258
184 174 153 112 131 264 278 284 295 300 304 312 320 328 335 342 346 349 352 351 351 351 354 355 354 354 354 352 345 344 345 343 342 341 339 338 330 318 313 321 319 280 269 276 280 281 267 268 265
192 199 237 279 252 264 276 283 288 297 302 311 312 320 328 335 342 345 348 349 346 345 346 351 351 352 348 351 345 342 344 346 345 341 339 343 343 334 328 332 336 323 296 288 291 294 295 268 268
200 205 217 249 265 268 272 279 285 294 302 306 307 313 326 329 336 340 343 345 342 342 342 347 347 347 346 346 346 341 339 342 342 337 336 338 338 336 331 332 340 335 317 300 297 294 294 281 276
213 211 210 234 252 265 268 275 282 286 296 300 301 303 319 320 331 333 335 340 339 340 340 343 343 345 347 344 340 339 337 337 338 334 333 335 333 334 333 335 339 332 325 297 293 304 298 295 286
211 214 215 238 250 261 265 275 279 286 287 290 291 301 313 313 322 328 331 335 336 338 338 340 342 343 343 341 339 336 336 338 335 331 329 328 328 331 334 336 334 325 320 307 302 307 313 305 295
210 222 237 237 242 258 266 270 273 282 287 288 291 293 303 309 315 322 327 330 332 335 339 340 340 340 340 339 338 338 334 336 335 332 328 322 324 326 328 328 326 322 314 307 306 298 301 296 289
220 230 234 236 238 248 259 266 269 274 279 286 288 289 291 302 310 315 319 326 330 334 335 335 336 337 337 336 335 336 331 330 332 329 328 324 324 322 322 317 319 317 312 310 310 311 301 292 280
230 237 242 243 243 251 260 261 263 268 271 278 285 292 293 297 304 310 312 320 324 329 331 333 334 335 334 334 336 334 327 328 331 326 325 327 324 320 318 318 315 313 309 305 303 304 306 296 283
237 242 247 250 250 253 258 260 266 270 276 281 285 288 295 298 300 308 313 315 317 322 326 328 329 331 330 329 331 333 332 326 327 329 326 325 329 328 323 320 321 320 318 316 309 301 304 310 299
239 246 252 254 257 260 263 265 266 273 278 282 285 286 292 293 293 300 306 309 312 317 320 322 324 326 326 324 324 328 328 325 323 323 321 323 326 324 322 323 323 321 318 317 312 310 309 309 307
240 243 251 255 258 263 270 271 270 272 276 282 283 285 288 284 287 295 300 303 308 311 314 316 319 319 320 318 319 323 327 323 317 317 318 318 320 323 323 320 321 322 322 318 310 306 306 308 306
242 246 250 253 261 264 267 269 272 270 277 280 281 282 284 279 283 291 295 298 303 306 308 311 314 315 314 313 314 317 320 320 319 316 314 313 314 317 318 318 319 319 322 321 317 312 303 302 299
243 249 252 259 263 262 261 261 262 268 278 279 279 280 283 281 284 286 291 295 300 302 303 307 311 311 311 309 308 309 311 312 315 314 310 309 308 309 313 320 320 321 323 318 315 314 307 307 300
241 248 247 252 258 259 261 262 264 268 275 275 276 273 280 284 284 285 292 295 297 299 301 303 306 308 310 307 303 302 302 303 307 307 304 303 303 305 305 307 314 316 316 312 312 312 310 308 305
230 237 239 246 255 258 261 262 263 267 271 274 273 273 278 285 287 291 292 294 295 296 299 300 302 306 308 307 304 299 297 297 298 297 296 295 296 300 301 302 303 306 310 305 302 307 307 305 302
232 237 239 240 249 254 253 257 263 266 267 266 266 272 277 280 282 288 290 291 293 296 300 299 301 304 305 304 301 300 295 293 296 295 292 292 291 293 295 296 298 297 299 301 300 299 301 301 301
238 237 236 244 253 255 253 255 256 259 264 262 265 268 275 278 279 283 285 288 292 295 298 299 300 301 302 302 301 300 299 295 293 292 290 291 293 293 293 292 293 294 294 297 300 297 298 300 298
241 240 239 241 245 253 258 256 258 262 263 263 263 266 273 277 280 281 281 283 289 292 294 297 298 299 300 300 300 300 298 296 295 294 292 289 292 294 294 293 292 293 294 299 301 299 298 300 300
239 241 243 239 243 250 251 259 262 259 261 263 265 267 273 276 279 280 279 281 283 287 291 294 297 298 297 298 299 299 296 294 294 294 292 288 288 288 290 294 295 293 296 299 305 306 304 301 302
241 240 244 241 244 249 245 251 259 262 266 266 269 270 272 276 277 279 280 282 281 283 287 291 294 295 295 295 296 297 296 295 295 295 293 288 287 286 288 289 291 292 295 297 300 302 303 306 306
241 240 248 250 252 254 246 248 254 259 263 267 272 273 275 277 275 278 279 281 281 284 286 290 292 293 292 292 293 294 295 295 295 293 291 288 287 287 287 287 288 291 295 294 295 296 298 302 305
247 245 248 252 260 263 253 248 251 256 262 269 272 273 274 275 275 274 276 278 279 281 284 285 286 289 290 289 289 290 292 294 294 290 289 288 285 283 288 290 288 289 291 292 294 294 292 294 300
243 246 247 247 251 255 253 253 257 265 264 268 272 273 273 274 275 275 273 274 277 279 281 284 285 285 286 287 287 287 290 293 291 287 286 286 285 284 286 290 290 291 293 294 294 294 291 293 294
242 240 244 243 247 252 251 254 259 270 274 272 272 274 274 274 272 273 269 268 272 275 277 278 280 280 282 283 285 285 287 288 289 287 284 283 284 283 282 285 287 288 291 293 293 294 293 292 294
251 241 237 242 246 250 255 260 265 265 268 273 274 271 270 271 271 272 273 269 270 271 271 274 276 277 279 280 281 283 284 285 286 285 283 281 282 282 282 284 285 286 289 292 292 294 294 292 293
248 247 244 244 244 243 247 256 260 265 268 269 268 268 268 271 270 272 271 270 269 270 271 271 273 275 277 277 277 279 281 282 284 284 282 280 280 280 280 282 284 285 286 290 291 291 290 288 291
Height
5909 5909 5909 5910 5910 5909 5910 5911 5910 5908 5906 5905 5904 5903 5901 5900 5899 5900 5896 5893 5892 5891 5889 5888 5887 5886 5884 5883 5882 5881 5880 5879 5878 5878 5877 5877 5876 5876 5875 5875 5874 5874 5874 5874 5874 5874 5874 5874 5874
5909 5910 5910 5910 5910 5910 5911 5911 5910 5908 5907 5905 5904 5903 5902 5900 5899 5897 5895 5894 5892 5891 5890 5889 5887 5886 5885 5884 5882 5881 5880 5879 5879 5878 5877 5877 5876 5875 5875 5874 5874 5873 5874 5873 5873 5873 5874 5874 5874
5909 5909 5910 5910 5910 5912 5913 5911 5909 5908 5907 5906 5904 5903 5902 5900 5899 5897 5895 5894 5893 5891 5890 5889 5887 5886 5885 5884 5883 5882 5880 5880 5879 5878 5877 5876 5876 5875 5874 5874 5873 5872 5873 5873 5873 5873 5873 5873 5873
5909 5910 5910 5912 5912 5914 5913 5911 5909 5908 5907 5905 5904 5904 5902 5901 5899 5898 5896 5894 5893 5892 5890 5889 5888 5887 5885 5884 5883 5882 5881 5880 5879 5878 5877 5876 5876 5875 5874 5873 5871 5870 5871 5872 5872 5872 5872 5872 5872
5908 5909 5910 5911 5912 5913 5913 5911 5909 5908 5906 5905 5904 5903 5902 5901 5900 5898 5896 5894 5893 5892 5890 5889 5888 5887 5885 5884 5883 5882 5881 5880 5879 5878 5877 5876 5876 5875 5874 5873 5872 5871 5872 5872 5872 5871 5871 5871 5871
5907 5908 5910 5911 5912 5913 5912 5910 5909 5907 5906 5905 5904 5903 5901 5900 5899 5898 5896 5895 5893 5892 5890 5889 5888 5887 5886 5884 5883 5882 5881 5880 5879 5878 5877 5876 5876 5875 5874 5873 5872 5872 5872 5871 5871 5871 5871 5870 5870
5906 5907 5908 5911 5912 5912 5911 5909 5908 5907 5905 5905 5904 5903 5901 5900 5899 5898 5896 5895 5893 5892 5890 5889 5888 5887 5886 5884 5883 5882 5881 5880 5879 5878 5877 5876 5876 5875 5874 5873 5873 5872 5871 5871 5871 5870 5870 5870 5869
5905 5907 5907 5910 5912 5910 5909 5908 5908 5906 5905 5904 5903 5902 5901 5900 5899 5897 5896 5895 5893 5892 5890 5889 5887 5886 5885 5884 5883 5882 5881 5880 5879 5878 5877 5876 5875 5875 5874 5873 5873 5872 5871 5871 5870 5870 5870 5869 5869
5903 5906 5907 5909 5910 5908 5907 5907 5907 5905 5904 5903 5902 5901 5901 5899 5898 5897 5896 5894 5893 5891 5890 5889 5887 5886 5885 5884 5883 5882 5880 5879 5878 5877 5877 5876 5875 5875 5874 5873 5872 5872 5871 5870 5870 5870 5869 5869 5868
5902 5904 5906 5907 5908 5906 5905 5905 5904 5903 5903 5902 5901 5901 5899 5898 5897 5896 5895 5894 5892 5891 5890 5888 5887 5886 5885 5884 5882 5881 5880 5879 5878 5877 5876 5875 5875 5874 5873 5873 5872 5871 5871 5870 5870 5869 5869 5868 5868
5900 5902 5903 5904 5904 5904 5903 5903 5903 5902 5901 5900 5900 5899 5898 5897 5896 5895 5894 5893 5892 5891 5890 5888 5887 5886 5885 5883 5882 5881 5880 5879 5877 5876 5875 5875 5874 5874 5873 5872 5871 5871 5870 5870 5869 5868 5868 5868 5867
5898 5899 5900 5901 5901 5901 5901 5901 5901 5900 5900 5898 5897 5897 5896 5896 5895 5894 5892 5891 5891 5890 5889 5888 5887 5886 5884 5883 5882 5880 5879 5878 5877 5876 5875 5874 5874 5873 5872 5872 5871 5870 5870 5869 5868 5868 5867 5867 5867
5895 5897 5898 5898 5898 5898 5898 5898 5899 5898 5897 5897 5896 5896 5895 5895 5894 5892 5891 5890 5890 5889 5888 5887 5886 5885 5884 5883 5881 5880 5879 5878 5876 5875 5875 5874 5873 5872 5871 5871 5870 5869 5869 5868 5868 5867 5867 5866 5866
5892 5894 5895 5895 5895 5896 5896 5896 5897 5896 5895 5895 5895 5894 5894 5893 5892 5891 5890 5889 5888 5887 5887 5886 5885 5884 5883 5882 5881 5879 5878 5877 5876 5875 5874 5873 5872 5872 5871 5870 5869 5869 5868 5867 5867 5866 5866 5865 5865
5889 5891 5892 5893 5893 5894 5894 5895 5895 5895 5893 5893 5892 5892 5891 5890 5890 5889 5889 5888 5887 5887 5886 5885 5884 5883 5882 5881 5880 5879 5877 5876 5875 5874 5873 5873 5872 5871 5870 5870 5869 5868 5867 5866 5866 5865 5865 5865 5864
5887 5888 5889 5891 5891 5892 5893 5893 5894 5892 5891 5891 5890 5890 5889 5887 5887 5888 5887 5887 5886 5886 5885 5884 5883 5882 5881 5880 5879 5878 5877 5876 5875 5873 5873 5872 5871 5870 5869 5868 5868 5867 5867 5866 5865 5864 5864 5863 5863
5884 5886 5888 5890 5890 5890 5891 5891 5890 5890 5889 5888 5888 5887 5887 5886 5885 5885 5885 5885 5885 5884 5884 5883 5882 5881 5880 5878 5877 5876 5875 5874 5873 5873 5872 5871 5870 5869 5868 5867 5867 5866 5866 5865 5864 5864 5863 5863 5862
5883 5884 5886 5888 5888 5888 5888 5888 5887 5887 5887 5885 5885 5885 5884 5884 5883 5882 5883 5884 5883 5883 5882 5881 5880 5879 5878 5877 5876 5875 5874 5873 5872 5871 5870 5870 5869 5868 5867 5866 5866 5866 5865 5864 5864 5863 5863 5862 5862
5880 5883 5885 5887 5886 5886 5885 5885 5885 5885 5885 5884 5883 5882 5882 5881 5880 5881 5881 5882 5881 5881 5880 5879 5878 5877 5876 5875 5874 5873 5872 5871 5870 5870 5869 5868 5868 5867 5866 5865 5865 5865 5864 5863 5863 5862 5862 5861 5861
5876 5879 5881 5883 5882 5882 5882 5882 5882 5882 5882 5881 5880 5880 5880 5880 5879 5879 5879 5879 5879 5878 5878 5877 5876 5875 5874 5873 5872 5871 5870 5869 5868 5867 5867 5866 5866 5865 5865 5864 5864 5863 5863 5862 5862 5861 5861 5860 5860
5872 5874 5877 5879 5878 5878 5879 5879 5878 5878 5877 5877 5877 5878 5878 5877 5877 5877 5877 5876 5876 5876 5875 5874 5874 5873 5872 5871 5869 5868 5867 5866 5866 5865 5865 5864 5864 5863 5862 5862 5862 5862 5861 5861 5860 5859 5859 5859 5859
5869 5871 5872 5874 5875 5874 5875 5874 5873 5872 5873 5874 5874 5875 5875 5874 5874 5874 5874 5874 5873 5873 5873 5872 5871 5870 5869 5868 5867 5866 5865 5865 5864 5863 5863 5862 5861 5861 5860 5860 5860 5860 5859 5859 5858 5858 5858 5857 5857
5865 5867 5867 5869 5870 5871 5871 5871 5872 5868 5868 5869 5871 5872 5872 5872 5871 5871 5871 5871 5870 5870 5869 5869 5868 5867 5866 5865 5864 5863 5863 5862 5861 5860 5860 5859 5859 5858 5858 5858 5858 5857 5857 5857 5857 5856 5856 5856 5856
5860 5862 5863 5864 5865 5866 5867 5868 5867 5866 5865 5866 5867 5868 5869 5869 5868 5868 5867 5867 5867 5866 5866 5865 5865 5864 5863 5862 5861 5861 5860 5859 5859 5858 5857 5856 5856 5856 5856 5856 5855 5855 5855 5855 5855 5855 5855 5854 5854
5856 5858 5860 5860 5861 5861 5863 5864 5864 5862 5862 5863 5863 5864 5865 5865 5864 5863 5863 5863 5863 5862 5862 5861 5861 5861 5860 5859 5858 5858 5857 5856 5855 5855 5854 5854 5853 5853 5853 5853 5853 5853 5853 5853 5853 5853 5852 5852 5851
5853 5855 5856 5857 5858 5859 5859 5859 5859 5858 5859 5859 5860 5860 5860 5860 5860 5859 5859 5859 5859 5858 5858 5857 5857 5857 5856 5855 5855 5855 5854 5853 5853 5852 5851 5851 5851 5851 5851 5851 5851 5851 5851 5850 5850 5850 5849 5849 5849
5848 5850 5852 5853 5854 5855 5855 5854 5854 5853 5853 5855 5855 5854 5855 5856 5856 5855 5855 5855 5855 5855 5854 5854 5853 5852 5852 5852 5851 5851 5850 5850 5849 5849 5848 5848 5848 5848 5848 5848 5848 5848 5848 5848 5847 5847 5846 5846 5846
5844 5846 5848 5848 5849 5850 5851 5849 5850 5850 5850 5851 5850 5850 5851 5851 5850 5850 5849 5850 5850 5850 5850 5850 5849 5848 5848 5848 5847 5847 5847 5846 5845 5845 5845 5845 5844 5845 5845 5845 5845 5845 5845 5845 5844 5844 5843 5843 5843
5840 5842 5843 5844 5845 5846 5847 5848 5845 5845 5845 5845 5845 5845 5844 5845 5845 5845 5845 5845 5845 5844 5844 5845 5844 5844 5843 5843 5843 5843 5843 5842 5842 5841 5841 5841 5841 5841 5841 5841 5842 5842 5842 5842 5842 5841 5840 5840 5840
5836 5837 5839 5840 5840 5841 5842 5843 5840 5840 5840 5839 5839 5839 5839 5839 5839 5840 5840 5839 5840 5840 5839 5839 5839 5839 5839 5839 5839 5838 5838 5838 5838 5837 5837 5837 5837 5837 5838 5838 5838 5838 5838 5838 5838 5837 5837 5837 5837